When you browse on this site, cookies collect data to enhance your experience and personalize the content and advertising you see.
Visit our Privacy Policy to learn more. By continuing to use the site, you agree to this use of cookies and data.
  • In Spain
  • List of Countries
  • For 7 days
  • Water Temperature
  • Weather Map
  • Weather Widgets
  • user-avatar
    Login

    Hourly Weather Luksor

    Today, 23 October, Wednesday

    Time Temperature Precipitation Wind Pressure Humidity
    00:00 +26°C° 0 mm 3 mps 749 mmHg 36%
    01:00 +25°C° 0 mm 2 mps 749 mmHg 39%
    02:00 +24°C° 0 mm 1 mps 749 mmHg 43%
    03:00 +24°C° 0 mm 1 mps 749 mmHg 45%
    04:00 +24°C° 0 mm 1 mps 749 mmHg 47%
    05:00 +23°C° 0 mm 1 mps 750 mmHg 49%
    06:00 +25°C° 0 mm 1 mps 750 mmHg 46%
    07:00 +26°C° 0 mm 2 mps 750 mmHg 44%
    08:00 +28°C° 0 mm 2 mps 751 mmHg 41%
    09:00 +29°C° 0 mm 3 mps 750 mmHg 37%
    10:00 +32°C° 0 mm 4 mps 750 mmHg 34%
    11:00 +34°C° 0 mm 4 mps 750 mmHg 30%
    12:00 +35°C° 0 mm 5 mps 749 mmHg 27%
    13:00 +35°C° 0 mm 5 mps 749 mmHg 25%
    14:00 +36°C° 0 mm 5 mps 748 mmHg 22%
    15:00 +35°C° 0 mm 5 mps 748 mmHg 23%
    16:00 +34°C° 0 mm 5 mps 749 mmHg 24%
    17:00 +33°C° 0 mm 5 mps 749 mmHg 25%
    18:00 +32°C° 0 mm 5 mps 749 mmHg 27%
    19:00 +29°C° 0 mm 5 mps 750 mmHg 28%
    20:00 +28°C° 0 mm 5 mps 750 mmHg 29%
    21:00 +27°C° 0 mm 4 mps 750 mmHg 29%
    22:00 +26°C° 0 mm 4 mps 750 mmHg 29%
    23:00 +25°C° 0 mm 4 mps 751 mmHg 30%

    Tomorrow, 24 October, Thursday

    Time Temperature Precipitation Wind Pressure Humidity
    00:00 +24°C° 0 mm 3 mps 750 mmHg 31%
    01:00 +23°C° 0 mm 2 mps 750 mmHg 33%
    02:00 +22°C° 0 mm 1 mps 750 mmHg 35%
    03:00 +21°C° 0 mm 1 mps 750 mmHg 36%
    04:00 +21°C° 0 mm 1 mps 750 mmHg 37%
    05:00 +20°C° 0 mm 1 mps 750 mmHg 37%
    06:00 +22°C° 0 mm 1 mps 751 mmHg 33%
    07:00 +24°C° 0 mm 1 mps 751 mmHg 29%
    08:00 +26°C° 0 mm 2 mps 752 mmHg 26%
    09:00 +28°C° 0 mm 2 mps 751 mmHg 24%
    10:00 +30°C° 0 mm 3 mps 751 mmHg 22%
    11:00 +32°C° 0 mm 4 mps 751 mmHg 20%
    12:00 +33°C° 0 mm 4 mps 751 mmHg 18%
    13:00 +34°C° 0 mm 4 mps 750 mmHg 17%
    14:00 +34°C° 0 mm 5 mps 750 mmHg 15%
    15:00 +33°C° 0 mm 4 mps 750 mmHg 16%
    16:00 +32°C° 0 mm 4 mps 750 mmHg 17%
    17:00 +30°C° 0 mm 4 mps 750 mmHg 18%
    18:00 +28°C° 0 mm 4 mps 750 mmHg 21%
    19:00 +27°C° 0 mm 3 mps 751 mmHg 24%
    20:00 +25°C° 0 mm 3 mps 751 mmHg 28%
    21:00 +25°C° 0 mm 3 mps 751 mmHg 30%
    22:00 +24°C° 0 mm 3 mps 751 mmHg 32%
    23:00 +24°C° 0 mm 3 mps 751 mmHg 35%

    Day after tomorrow, 25 October, Friday

    Time Temperature Precipitation Wind Pressure Humidity
    00:00 +22°C° 0 mm 3 mps 751 mmHg 37%
    01:00 +21°C° 0 mm 2 mps 751 mmHg 40%
    02:00 +20°C° 0 mm 2 mps 751 mmHg 43%
    03:00 +21°C° 0 mm 1 mps 751 mmHg 45%
    04:00 +20°C° 0 mm 1 mps 751 mmHg 46%
    05:00 +20°C° 0 mm 1 mps 751 mmHg 48%
    06:00 +22°C° 0 mm 1 mps 751 mmHg 44%
    07:00 +24°C° 0 mm 1 mps 752 mmHg 39%
    08:00 +25°C° 0 mm 2 mps 752 mmHg 35%
    09:00 +27°C° 0 mm 2 mps 752 mmHg 32%
    10:00 +29°C° 0 mm 3 mps 752 mmHg 29%
    11:00 +30°C° 0 mm 3 mps 752 mmHg 26%
    12:00 +32°C° 0 mm 4 mps 751 mmHg 24%
    13:00 +33°C° 0 mm 4 mps 751 mmHg 22%
    14:00 +34°C° 0 mm 5 mps 750 mmHg 20%
    15:00 +33°C° 0 mm 5 mps 750 mmHg 22%
    16:00 +32°C° 0 mm 5 mps 750 mmHg 24%
    17:00 +30°C° 0 mm 4 mps 750 mmHg 25%
    18:00 +28°C° 0 mm 4 mps 751 mmHg 28%
    19:00 +27°C° 0 mm 4 mps 751 mmHg 32%
    20:00 +26°C° 0 mm 4 mps 752 mmHg 35%
    21:00 +25°C° 0 mm 3 mps 752 mmHg 38%
    22:00 +24°C° 0 mm 3 mps 752 mmHg 41%
    23:00 +23°C° 0 mm 2 mps 752 mmHg 44%

    26 October, Saturday

    Time Temperature Precipitation Wind Pressure Humidity
    00:00 +21°C° 0 mm 2 mps 752 mmHg 46%
    01:00 +21°C° 0 mm 1 mps 751 mmHg 49%
    02:00 +20°C° 0 mm 1 mps 751 mmHg 51%
    03:00 +20°C° 0 mm 1 mps 752 mmHg 52%
    04:00 +20°C° 0 mm 1 mps 752 mmHg 53%
    05:00 +20°C° 0 mm 1 mps 752 mmHg 53%
    06:00 +21°C° 0 mm 2 mps 752 mmHg 49%
    07:00 +23°C° 0 mm 2 mps 753 mmHg 45%
    08:00 +25°C° 0 mm 2 mps 753 mmHg 41%
    09:00 +27°C° 0 mm 3 mps 753 mmHg 37%
    10:00 +29°C° 0 mm 4 mps 753 mmHg 34%
    11:00 +30°C° 0 mm 5 mps 752 mmHg 30%
    12:00 +32°C° 0 mm 5 mps 752 mmHg 27%
    13:00 +33°C° 0 mm 6 mps 751 mmHg 25%
    14:00 +34°C° 0 mm 6 mps 750 mmHg 22%
    15:00 +33°C° 0 mm 6 mps 750 mmHg 24%
    16:00 +32°C° 0 mm 6 mps 750 mmHg 26%
    17:00 +30°C° 0 mm 5 mps 750 mmHg 27%
    18:00 +29°C° 0 mm 5 mps 751 mmHg 31%
    19:00 +27°C° 0 mm 5 mps 751 mmHg 35%
    20:00 +26°C° 0 mm 5 mps 751 mmHg 39%
    21:00 +25°C° 0 mm 4 mps 751 mmHg 43%
    22:00 +24°C° 0 mm 3 mps 751 mmHg 47%
    23:00 +23°C° 0 mm 2 mps 751 mmHg 51%

    27 October, Sunday

    Time Temperature Precipitation Wind Pressure Humidity
    00:00 +21°C° 0 mm 2 mps 751 mmHg 56%
    01:00 +21°C° 0 mm 2 mps 751 mmHg 60%
    02:00 +20°C° 0 mm 2 mps 751 mmHg 65%
    03:00 +20°C° 0 mm 2 mps 751 mmHg 67%
    04:00 +19°C° 0 mm 2 mps 751 mmHg 69%
    05:00 +18°C° 0 mm 2 mps 751 mmHg 71%
    06:00 +20°C° 0 mm 2 mps 751 mmHg 65%
    07:00 +21°C° 0 mm 2 mps 751 mmHg 58%
    08:00 +24°C° 0 mm 3 mps 752 mmHg 52%
    09:00 +26°C° 0 mm 3 mps 752 mmHg 46%
    10:00 +28°C° 0 mm 4 mps 751 mmHg 40%
    11:00 +29°C° 0 mm 4 mps 751 mmHg 35%
    12:00 +32°C° 0 mm 4 mps 750 mmHg 31%
    13:00 +33°C° 0 mm 4 mps 750 mmHg 27%
    14:00 +34°C° 0 mm 4 mps 749 mmHg 23%
    15:00 +33°C° 0 mm 4 mps 749 mmHg 24%
    16:00 +31°C° 0 mm 3 mps 749 mmHg 25%
    17:00 +30°C° 0 mm 3 mps 749 mmHg 26%
    18:00 +28°C° 0 mm 3 mps 749 mmHg 30%
    19:00 +27°C° 0 mm 3 mps 749 mmHg 33%
    20:00 +25°C° 0 mm 3 mps 750 mmHg 36%
    21:00 +24°C° 0 mm 2 mps 750 mmHg 43%
    22:00 +23°C° 0 mm 2 mps 750 mmHg 50%
    23:00 +23°C° 0 mm 1 mps 750 mmHg 57%

    28 October, Monday

    Time Temperature Precipitation Wind Pressure Humidity
    00:00 +22°C° 0 mm 1 mps 750 mmHg 60%
    01:00 +21°C° 0 mm 1 mps 750 mmHg 62%
    02:00 +21°C° 0 mm 1 mps 750 mmHg 65%
    03:00 +21°C° 0 mm 1 mps 750 mmHg 66%
    04:00 +20°C° 0 mm 1 mps 750 mmHg 66%
    05:00 +20°C° 0 mm 1 mps 750 mmHg 67%
    06:00 +21°C° 0 mm 1 mps 750 mmHg 60%
    07:00 +23°C° 0 mm 2 mps 751 mmHg 54%
    08:00 +25°C° 0 mm 2 mps 751 mmHg 47%
    09:00 +27°C° 0 mm 1 mps 751 mmHg 41%
    10:00 +29°C° 0 mm 1 mps 751 mmHg 36%
    11:00 +31°C° 0 mm 1 mps 751 mmHg 30%
    12:00 +32°C° 0 mm 1 mps 750 mmHg 26%
    13:00 +34°C° 0 mm 2 mps 749 mmHg 23%
    14:00 +35°C° 0 mm 2 mps 749 mmHg 19%
    15:00 +32°C° 0 mm 2 mps 749 mmHg 20%
    16:00 +31°C° 0 mm 2 mps 749 mmHg 21%
    17:00 +29°C° 0 mm 2 mps 749 mmHg 22%
    18:00 +28°C° 0 mm 2 mps 749 mmHg 23%
    19:00 +27°C° 0 mm 3 mps 750 mmHg 24%
    20:00 +26°C° 0 mm 4 mps 750 mmHg 24%
    21:00 +25°C° 0 mm 3 mps 750 mmHg 28%
    22:00 +24°C° 0 mm 2 mps 750 mmHg 32%
    23:00 +21°C° 0 mm 2 mps 750 mmHg 36%

    29 October, Tuesday

    Time Temperature Precipitation Wind Pressure Humidity
    00:00 +21°C° 0 mm 2 mps 750 mmHg 36%
    01:00 +21°C° 0 mm 1 mps 750 mmHg 37%
    02:00 +21°C° 0 mm 1 mps 750 mmHg 38%
    03:00 +20°C° 0 mm 1 mps 750 mmHg 39%
    04:00 +20°C° 0 mm 1 mps 750 mmHg 40%
    05:00 +19°C° 0 mm 1 mps 750 mmHg 41%
    06:00 +21°C° 0 mm 1 mps 751 mmHg 38%
    07:00 +23°C° 0 mm 1 mps 751 mmHg 34%
    08:00 +25°C° 0 mm 1 mps 751 mmHg 30%
    09:00 +27°C° 0 mm 1 mps 751 mmHg 27%
    10:00 +29°C° 0 mm 1 mps 751 mmHg 24%
    11:00 +31°C° 0 mm 1 mps 751 mmHg 21%
    12:00 +32°C° 0 mm 2 mps 751 mmHg 18%
    13:00 +34°C° 0 mm 2 mps 750 mmHg 16%
    14:00 +35°C° 0 mm 3 mps 749 mmHg 13%
    15:00 +34°C° 0 mm 3 mps 750 mmHg 13%
    16:00 +31°C° 0 mm 3 mps 750 mmHg 13%
    17:00 +30°C° 0 mm 3 mps 750 mmHg 14%
    18:00 +28°C° 0 mm 3 mps 750 mmHg 16%
    19:00 +27°C° 0 mm 4 mps 750 mmHg 17%
    20:00 +25°C° 0 mm 4 mps 751 mmHg 19%
    21:00 +24°C° 0 mm 3 mps 751 mmHg 22%
    22:00 +22°C° 0 mm 3 mps 751 mmHg 25%
    23:00 +21°C° 0 mm 2 mps 751 mmHg 28%
    Show more